Location: Battery Park City
(40.7115°N, 74.0163°W)
Time: 09:07:01
(UTC+00:00)

Lacrosse 5 rocket - Pass Details

Date: 08 December 2019
Orbit: 465 x 632 km, 57.0° (Epoch: 24 January)

Event Time Altitude Azimuth Distance (km) Brightness Sun altitude
Rises 23:33:10 0° 268° (W) 2,792 6.3 -22.9°
Reaches altitude 10° 23:36:06 10° 288° (WNW) 1,859 4.8 -23.4°
Maximum altitude 23:38:58 18° 331° (NNW) 1,403 3.5 -24.0°
Enters shadow 23:39:45 17° 346° (NNW) 1,430 3.4 -24.1°
